Погода в Никольске

Россия / Республика Бурятия     51°11′31″N   108°19′27″E
темп.,
°C
ветер,
м/с
пор.,
м/с
влажн.,
%
обл.,
%
осадки,
мм/ч
давл.,
гПа
погр.,
м
22 апреля, чт
чт2223:00−2с41048100 0.0 1021689
02:00−3ссв3751100 2.2 1023757
05:00−3ссз3558100 0.4 1025435
08:00−3с4556100 0.4 1027674
11:00+1ссв4438100 0.0 10261191
14:00+4с4531100 0.0 10251680
17:00+1с5649100 0.1 10281180
20:00−3с3882100 0.5 1032445
23 апреля, пт
пт2323:00−4ссз2591100 1.7 1035343
02:00−5ссз3692100 4.8 1038380
05:00−5ссв3787100 1.3 1039399
08:00−4св3577100 1.3 1040346
11:00+1св3469100 0.0 10391038
14:00+4в4559100 0.0 10361380
17:00+4всв3566100 0.0 1036802
20:00+1св2279100 0.0 103713
24 апреля, сб
сб2423:00+1всв2283100 0.1 103724
02:000ссв2283100 0.1 103636
05:00−2св228299 0.0 103630
08:00+1всв3866100 0.3 1034329
11:00+5в6872100 0.2 1031632
14:00+7в61075100 0.5 1026719
17:00+9вюв4974100 0.0 1022753
20:00+6св2286100 0.0 102226
25 апреля, вс
вс2523:00+5в2290100 0.1 102022
02:00+6в4989100 2.6 1016340
05:00+5св2290100 0.8 101556
08:00+4ююз1295100 1.6 101551
11:00+2з4699100 1.0 1018316
14:00+4з4574100 1.6 1018944
17:00+4сз5667100 0.1 10181087
20:00+1ссз4880100 0.1 1020329
26 апреля, пн
пн2623:00−2зсз238691 0.0 102060
02:00−3зсз359038 0.0 1019144
05:00−4з2293100 0.0 101852
08:00−1ссз71172100 0.0 1017985
11:00+1ссз81063100 0.1 10161365
14:00+4сз91158100 0.2 10141736
17:00+4сз81157100 0.2 10151655
20:000сз7128035 0.3 1017633